"read_dt","SO2 (ppb)","flags","PMT voltage (V)","lamp voltage (V)","lamp intensity (Hz)","internal temp (C)","react chamber temp (C)","sample flow (l/min)","pres (mmHg)","SO2 bkg (ppb)","SO2 coefficient"
2016-06-04 00:00:00,2183E-3,5C000400,-0724,0829,12207,029.0,045.5,0.253,755.1,01.16,0.508
2016-06-04 00:01:00,2257E-3,5C000400,-0724,0830,12288,029.0,045.5,0.253,755.1,01.16,0.508
2016-06-04 00:02:00,2115E-3,5C000400,-0724,0830,12287,029.0,045.5,0.253,755.0,01.17,0.508
2016-06-04 00:03:00,2172E-3,5C000400,-0724,0829,12165,029.0,045.5,0.253,755.1,01.16,0.508
2016-06-04 00:04:00,2035E-3,5C000400,-0724,0829,12209,029.0,045.5,0.253,755.1,01.16,0.508
2016-06-04 00:05:00,2192E-3,5C000400,-0724,0830,12152,029.0,045.5,0.253,755.1,01.16,0.508
2016-06-04 00:06:00,2265E-3,5C000400,-0724,0829,12089,029.0,045.5,0.253,755.2,01.16,0.508
2016-06-04 00:07:00,2145E-3,5C000400,-0724,0829,12252,029.0,045.5,0.253,755.2,01.16,0.508
2016-06-04 00:08:00,2255E-3,5C000400,-0724,0829,12264,029.0,045.5,0.253,755.3,01.16,0.508
2016-06-04 00:09:00,2228E-3,5C000400,-0724,0830,12199,029.0,045.5,0.253,755.3,01.16,0.508
2016-06-04 00:10:00,2118E-3,5C000400,-0724,0830,12060,029.0,045.5,0.253,755.3,01.16,0.508
2016-06-04 00:11:00,2157E-3,5C000400,-0724,0830,12167,029.0,045.5,0.253,755.3,01.16,0.508
2016-06-04 00:12:00,2220E-3,5C000400,-0724,0829,12260,029.0,045.5,0.253,755.3,01.16,0.508
2016-06-04 00:13:00,2082E-3,5C000400,-0724,0830,12175,029.0,045.5,0.253,755.2,01.16,0.508
2016-06-04 00:14:00,2313E-3,5C000400,-0724,0830,12270,029.0,045.5,0.253,755.2,01.16,0.508
2016-06-04 00:15:00,2138E-3,5C000400,-0724,0829,12232,029.0,045.5,0.253,755.2,01.16,0.508
2016-06-04 00:16:00,2153E-3,5C000400,-0724,0829,12130,029.0,045.5,0.253,755.2,01.16,0.508
2016-06-04 00:17:00,2076E-3,5C000400,-0724,0830,12201,029.0,045.5,0.253,755.3,01.16,0.508
2016-06-04 00:18:00,2090E-3,5C000400,-0724,0829,12334,029.0,045.5,0.253,755.2,01.16,0.508
2016-06-04 00:19:00,2122E-3,5C000400,-0724,0830,12258,029.0,045.5,0.253,755.2,01.16,0.508
2016-06-04 00:20:00,2185E-3,5C000400,-0724,0829,12348,029.0,045.5,0.253,755.2,01.16,0.508
2016-06-04 00:21:00,2108E-3,5C000400,-0724,0829,12204,029.0,045.5,0.253,755.2,01.16,0.508
2016-06-04 00:22:00,2164E-3,5C000400,-0724,0829,12324,029.0,045.5,0.253,755.2,01.16,0.508
2016-06-04 00:23:00,2225E-3,5C000400,-0724,0830,12322,029.0,045.5,0.253,755.2,01.16,0.508
2016-06-04 00:24:00,2197E-3,5C000400,-0724,0829,12212,028.9,045.5,0.253,755.2,01.16,0.508
2016-06-04 00:25:00,2105E-3,5C000400,-0724,0830,12217,029.0,045.5,0.253,755.2,01.16,0.508
2016-06-04 00:26:00,2076E-3,5C000400,-0724,0829,12089,029.0,045.5,0.253,755.2,01.16,0.508
2016-06-04 00:27:00,2130E-3,5C000400,-0724,0829,12195,029.0,045.5,0.253,755.2,01.16,0.508
2016-06-04 00:28:00,2128E-3,5C000400,-0724,0830,12125,029.0,045.5,0.253,755.2,01.16,0.508
2016-06-04 00:29:00,2089E-3,5C000400,-0724,0830,12081,029.0,045.5,0.253,755.2,01.16,0.508
2016-06-04 00:30:00,2102E-3,5C000400,-0724,0829,12245,029.0,045.5,0.253,755.2,01.16,0.508
2016-06-04 00:31:00,2046E-3,5C000400,-0724,0829,12188,029.0,045.5,0.253,755.2,01.16,0.508
2016-06-04 00:32:00,2008E-3,5C000400,-0724,0829,12231,029.0,045.5,0.253,755.2,01.16,0.508
2016-06-04 00:33:00,1978E-3,5C000400,-0724,0829,12185,028.9,045.5,0.253,755.2,01.16,0.508
2016-06-04 00:34:00,2125E-3,5C000400,-0724,0830,12169,029.0,045.5,0.253,755.2,01.16,0.508
2016-06-04 00:35:00,2227E-3,5C000400,-0724,0829,12171,028.9,045.5,0.253,755.1,01.16,0.508
2016-06-04 00:36:00,2161E-3,5C000400,-0724,0829,12092,028.9,045.5,0.254,755.1,01.16,0.508
2016-06-04 00:37:00,2168E-3,5C000400,-0724,0829,12026,028.9,045.5,0.254,755.2,01.16,0.508
2016-06-04 00:38:00,2128E-3,5C000400,-0724,0830,12316,028.9,045.5,0.253,755.2,01.16,0.508
2016-06-04 00:39:00,2194E-3,5C000400,-0724,0830,12251,028.9,045.5,0.253,755.2,01.16,0.508
2016-06-04 00:40:00,2107E-3,5C000400,-0724,0829,12209,028.9,045.5,0.253,755.3,01.16,0.508
2016-06-04 00:41:00,2114E-3,5C000400,-0724,0829,12273,029.0,045.5,0.253,755.3,01.16,0.508
2016-06-04 00:42:00,2318E-3,5C000400,-0724,0830,12138,028.9,045.5,0.253,755.3,01.16,0.508
2016-06-04 00:43:00,2119E-3,5C000400,-0724,0830,12201,028.9,045.5,0.253,755.3,01.16,0.508
2016-06-04 00:44:00,1998E-3,5C000400,-0724,0829,12150,029.0,045.5,0.253,755.3,01.16,0.508
2016-06-04 00:45:00,2182E-3,5C000400,-0724,0829,12181,028.9,045.5,0.253,755.3,01.16,0.508
2016-06-04 00:46:00,2085E-3,5C000400,-0724,0830,12120,028.9,045.5,0.253,755.4,01.16,0.508
2016-06-04 00:47:00,2097E-3,5C000400,-0724,0829,12197,028.9,045.5,0.253,755.4,01.16,0.508
2016-06-04 00:48:00,2256E-3,5C000400,-0724,0829,12178,029.0,045.5,0.253,755.5,01.16,0.508
2016-06-04 00:49:00,2118E-3,5C000400,-0724,0830,12327,028.9,045.5,0.254,755.5,01.16,0.508
2016-06-04 00:50:00,2081E-3,5C000400,-0724,0830,12367,028.9,045.5,0.254,755.5,01.16,0.508
2016-06-04 00:51:00,2220E-3,5C000400,-0724,0829,11169,028.9,045.5,0.254,755.6,01.16,0.508
2016-06-04 00:52:00,2186E-3,5C000400,-0724,0830,12311,028.9,045.5,0.254,755.6,01.16,0.508
2016-06-04 00:53:00,2188E-3,5C000400,-0724,0829,12285,028.9,045.5,0.254,755.6,01.16,0.508
2016-06-04 00:54:00,2353E-3,5C000400,-0724,0829,12259,028.9,045.5,0.254,755.6,01.16,0.508
2016-06-04 00:55:00,2021E-3,5C000400,-0724,0828,12220,028.9,045.5,0.253,755.5,01.16,0.508
2016-06-04 00:56:00,2099E-3,5C000400,-0724,0829,12223,029.0,045.5,0.253,755.5,01.16,0.508
2016-06-04 00:57:00,2150E-3,5C000400,-0724,0830,12190,028.9,045.5,0.253,755.5,01.16,0.508
2016-06-04 00:58:00,2126E-3,5C000400,-0724,0830,12255,029.0,045.5,0.253,755.5,01.16,0.508
2016-06-04 00:59:00,2135E-3,5C000400,-0724,0829,12271,028.9,045.5,0.253,755.5,01.16,0.508
2016-06-04 01:00:00,2062E-3,5C000400,-0724,0830,12102,029.0,045.5,0.253,755.5,01.16,0.508
2016-06-04 01:01:00,2111E-3,5C000400,-0724,0829,12238,028.9,045.5,0.253,755.5,01.16,0.508
2016-06-04 01:02:00,2102E-3,5C000400,-0724,0829,12180,028.9,045.5,0.253,755.5,01.16,0.508
2016-06-04 01:03:00,2130E-3,5C000400,-0724,0830,12237,029.0,045.5,0.253,755.5,01.16,0.508
2016-06-04 01:04:00,2201E-3,5C000400,-0724,0829,12144,029.0,045.5,0.253,755.5,01.16,0.508
2016-06-04 01:05:00,2148E-3,5C000400,-0724,0829,12339,029.0,045.5,0.253,755.6,01.16,0.508
2016-06-04 01:06:00,2157E-3,5C000400,-0724,0829,12271,028.9,045.5,0.254,755.5,01.16,0.508
2016-06-04 01:07:00,2205E-3,5C000400,-0724,0829,12236,028.9,045.5,0.253,755.5,01.16,0.508
2016-06-04 01:08:00,2170E-3,5C000400,-0724,0829,12311,028.9,045.5,0.253,755.5,01.16,0.508
2016-06-04 01:09:00,2072E-3,5C000400,-0724,0830,12061,028.9,045.5,0.253,755.5,01.16,0.508
2016-06-04 01:10:00,2057E-3,5C000400,-0724,0829,12366,029.0,045.5,0.253,755.5,01.16,0.508
2016-06-04 01:11:00,2257E-3,5C000400,-0724,0829,12158,029.0,045.5,0.253,755.5,01.16,0.508
2016-06-04 01:12:00,2057E-3,5C000400,-0724,0830,12189,028.9,045.5,0.253,755.5,01.16,0.508
2016-06-04 01:13:00,2161E-3,5C000400,-0724,0829,12112,028.9,045.5,0.253,755.5,01.16,0.508
2016-06-04 01:14:00,2092E-3,5C000400,-0724,0829,12054,028.9,045.5,0.253,755.6,01.16,0.508
2016-06-04 01:15:00,2280E-3,5C000400,-0724,0830,11175,028.9,045.5,0.253,755.6,01.16,0.508
2016-06-04 01:16:00,2047E-3,5C000400,-0724,0829,12138,028.9,045.5,0.253,755.6,01.16,0.508
2016-06-04 01:17:00,2156E-3,5C000400,-0724,0828,12332,028.9,045.5,0.253,755.6,01.16,0.508
2016-06-04 01:18:00,2159E-3,5C000400,-0724,0829,12139,028.9,045.5,0.253,755.6,01.16,0.508
2016-06-04 01:19:00,2161E-3,5C000400,-0724,0830,12155,029.0,045.5,0.253,755.6,01.16,0.508
2016-06-04 01:20:00,2119E-3,5C000400,-0724,0829,12227,028.9,045.5,0.253,755.6,01.16,0.508
2016-06-04 01:21:00,2081E-3,5C000400,-0724,0829,12110,028.9,045.5,0.253,755.6,01.16,0.508
2016-06-04 01:22:00,1969E-3,5C000400,-0724,0830,12284,028.9,045.5,0.253,755.6,01.16,0.508
2016-06-04 01:23:00,2216E-3,5C000400,-0724,0829,12271,028.9,045.5,0.253,755.5,01.16,0.508
2016-06-04 01:24:00,2145E-3,5C000400,-0724,0829,12276,028.9,045.5,0.253,755.4,01.16,0.508
2016-06-04 01:25:00,2206E-3,5C000400,-0724,0830,12090,028.9,045.5,0.253,755.4,01.16,0.508
2016-06-04 01:26:00,2129E-3,5C000400,-0724,0829,12119,028.9,045.5,0.253,755.4,01.16,0.508
2016-06-04 01:27:00,2178E-3,5C000400,-0724,0829,12189,028.9,045.5,0.253,755.4,01.16,0.508
2016-06-04 01:28:00,2141E-3,5C000400,-0724,0830,12211,028.9,045.5,0.253,755.4,01.16,0.508
2016-06-04 01:29:00,2032E-3,5C000400,-0724,0830,12039,028.9,045.5,0.253,755.4,01.16,0.508
2016-06-04 01:30:00,2179E-3,5C000400,-0724,0829,12223,028.9,045.5,0.253,755.5,01.16,0.508
2016-06-04 01:31:00,2201E-3,5C000400,-0724,0829,12303,028.9,045.5,0.253,755.5,01.16,0.508
2016-06-04 01:32:00,2103E-3,5C000400,-0724,0829,12322,029.0,045.5,0.253,755.5,01.16,0.508
2016-06-04 01:33:00,2192E-3,5C000400,-0724,0829,12191,028.9,045.5,0.253,755.4,01.16,0.508
2016-06-04 01:34:00,1947E-3,5C000400,-0724,0829,12241,028.9,045.5,0.254,755.4,01.16,0.508
2016-06-04 01:35:00,2058E-3,5C000400,-0724,0830,12164,029.0,045.5,0.254,755.4,01.16,0.508
2016-06-04 01:36:00,2029E-3,5C000400,-0724,0830,12042,028.9,045.5,0.254,755.3,01.16,0.508
2016-06-04 01:37:00,2107E-3,5C000400,-0724,0830,12114,028.9,045.5,0.254,755.3,01.16,0.508
2016-06-04 01:38:00,2074E-3,5C000400,-0724,0829,12349,029.0,045.5,0.254,755.4,01.16,0.508
2016-06-04 01:39:00,2113E-3,5C000400,-0724,0829,12169,028.9,045.5,0.254,755.4,01.16,0.508
2016-06-04 01:40:00,2103E-3,5C000400,-0724,0829,12379,028.9,045.5,0.254,755.4,01.16,0.508
2016-06-04 01:41:00,2098E-3,5C000400,-0724,0829,12239,028.9,045.5,0.254,755.4,01.16,0.508
2016-06-04 01:42:00,2147E-3,5C000400,-0724,0829,12184,028.9,045.5,0.254,755.4,01.16,0.508
2016-06-04 01:43:00,2317E-3,5C000400,-0724,0830,12205,028.9,045.5,0.254,755.3,01.16,0.508
2016-06-04 01:44:00,2175E-3,5C000400,-0724,0830,12313,028.9,045.5,0.254,755.4,01.16,0.508
2016-06-04 01:45:00,2272E-3,5C000400,-0724,0829,12168,028.9,045.5,0.254,755.4,01.16,0.508
2016-06-04 01:46:00,2100E-3,5C000400,-0724,0830,12200,028.9,045.5,0.254,755.4,01.16,0.508
2016-06-04 01:47:00,2156E-3,5C000400,-0724,0830,12214,028.9,045.5,0.253,755.4,01.16,0.508
2016-06-04 01:48:00,2110E-3,5C000400,-0724,0829,12271,028.9,045.5,0.253,755.5,01.16,0.508
2016-06-04 01:49:00,2284E-3,5C000400,-0724,0830,12247,028.9,045.5,0.253,755.5,01.16,0.508
2016-06-04 01:50:00,2169E-3,5C000400,-0724,0829,12051,028.9,045.5,0.253,755.5,01.16,0.508
2016-06-04 01:51:00,2031E-3,5C000400,-0724,0830,12261,028.9,045.5,0.253,755.5,01.16,0.508
2016-06-04 01:52:00,2220E-3,5C000400,-0724,0829,12090,028.9,045.4,0.253,755.5,01.16,0.508
2016-06-04 01:53:00,2117E-3,5C000400,-0724,0829,12042,028.9,045.5,0.253,755.5,01.16,0.508
2016-06-04 01:54:00,2147E-3,5C000400,-0724,0829,12119,028.9,045.5,0.253,755.5,01.16,0.508
2016-06-04 01:55:00,2122E-3,5C000400,-0724,0830,12184,028.9,045.5,0.253,755.5,01.16,0.508
2016-06-04 01:56:00,2122E-3,5C000400,-0724,0830,12159,028.9,045.5,0.253,755.6,01.16,0.508
2016-06-04 01:57:00,2125E-3,5C000400,-0724,0830,12085,028.9,045.5,0.253,755.6,01.16,0.508
2016-06-04 01:58:00,2115E-3,5C000400,-0724,0830,12090,028.9,045.5,0.253,755.6,01.16,0.508
2016-06-04 01:59:00,2208E-3,5C000400,-0724,0830,12270,028.9,045.5,0.253,755.5,01.16,0.508
2016-06-04 02:00:00,2265E-3,5C000400,-0724,0829,12318,028.9,045.5,0.253,755.5,01.16,0.508
2016-06-04 02:01:00,2088E-3,5C000400,-0724,0829,12012,028.9,045.5,0.253,755.5,01.16,0.508
2016-06-04 02:02:00,2201E-3,5C000400,-0724,0829,12262,028.9,045.5,0.253,755.5,01.16,0.508
2016-06-04 02:03:00,2142E-3,5C000400,-0724,0829,12320,028.9,045.5,0.253,755.5,01.16,0.508
2016-06-04 02:04:00,2208E-3,5C000400,-0724,0829,12104,028.9,045.5,0.253,755.4,01.16,0.508
2016-06-04 02:05:00,2096E-3,5C000400,-0724,0830,12222,028.9,045.5,0.253,755.3,01.16,0.508
2016-06-04 02:06:00,2225E-3,5C000400,-0724,0829,12247,028.9,045.5,0.253,755.3,01.16,0.508
2016-06-04 02:07:00,2041E-3,5C000400,-0724,0829,12271,028.9,045.5,0.253,755.4,01.16,0.508
2016-06-04 02:08:00,2201E-3,5C000400,-0724,0829,12190,028.9,045.5,0.253,755.4,01.16,0.508
2016-06-04 02:09:00,2272E-3,5C000400,-0724,0829,12040,028.9,045.5,0.253,755.3,01.16,0.508
2016-06-04 02:10:00,2076E-3,5C000400,-0724,0830,12121,028.9,045.5,0.253,755.3,01.16,0.508
2016-06-04 02:11:00,2015E-3,5C000400,-0724,0830,12180,028.9,045.5,0.253,755.4,01.16,0.508
2016-06-04 02:12:00,2199E-3,5C000400,-0724,0830,12087,028.9,045.5,0.253,755.5,01.16,0.508
2016-06-04 02:13:00,2059E-3,5C000400,-0724,0830,12171,028.9,045.5,0.253,755.5,01.16,0.508
2016-06-04 02:14:00,2127E-3,5C000400,-0724,0830,12175,028.9,045.5,0.253,755.5,01.16,0.508
2016-06-04 02:15:00,2183E-3,5C000400,-0724,0830,12201,028.9,045.5,0.253,755.5,01.16,0.508
2016-06-04 02:16:00,2062E-3,5C000400,-0724,0830,12173,028.9,045.5,0.254,755.6,01.16,0.508
2016-06-04 02:17:00,2118E-3,5C000400,-0724,0829,12211,028.9,045.5,0.254,755.5,01.16,0.508
2016-06-04 02:18:00,2238E-3,5C000400,-0724,0830,12267,028.9,045.5,0.254,755.5,01.16,0.508
2016-06-04 02:19:00,2110E-3,5C000400,-0724,0830,12108,028.9,045.5,0.254,755.5,01.16,0.508
2016-06-04 02:20:00,2133E-3,5C000400,-0724,0829,12178,028.9,045.5,0.254,755.5,01.16,0.508
2016-06-04 02:21:00,2024E-3,5C000400,-0724,0830,12217,028.9,045.5,0.254,755.5,01.16,0.508
2016-06-04 02:22:00,2258E-3,5C000400,-0724,0830,11973,028.9,045.5,0.254,755.5,01.16,0.508
2016-06-04 02:23:00,2215E-3,5C000400,-0724,0829,12296,028.9,045.5,0.254,755.4,01.16,0.508
2016-06-04 02:24:00,2193E-3,5C000400,-0724,0830,12163,028.9,045.5,0.254,755.5,01.16,0.508
2016-06-04 02:25:00,2047E-3,5C000400,-0724,0830,12259,028.9,045.5,0.253,755.5,01.16,0.508
2016-06-04 02:26:00,2108E-3,5C000400,-0724,0829,12234,028.9,045.5,0.253,755.4,01.16,0.508
2016-06-04 02:27:00,2168E-3,5C000400,-0724,0830,12198,028.9,045.5,0.253,755.4,01.16,0.508
2016-06-04 02:28:00,2107E-3,5C000400,-0724,0830,12225,028.9,045.5,0.253,755.5,01.16,0.508
2016-06-04 02:29:00,2063E-3,5C000400,-0724,0830,12264,028.9,045.5,0.253,755.5,01.16,0.508
2016-06-04 02:30:00,2138E-3,5C000400,-0724,0830,12157,028.9,045.5,0.253,755.5,01.16,0.508
2016-06-04 02:31:00,2236E-3,5C000400,-0724,0830,12204,028.9,045.5,0.253,755.6,01.16,0.508
2016-06-04 02:32:00,2229E-3,5C000400,-0724,0830,12219,028.9,045.5,0.253,755.5,01.16,0.508
2016-06-04 02:33:00,2121E-3,5C000400,-0724,0830,12142,028.9,045.5,0.253,755.5,01.16,0.508
2016-06-04 02:34:00,2219E-3,5C000400,-0724,0830,12031,028.9,045.5,0.253,755.4,01.16,0.508
2016-06-04 02:35:00,2210E-3,5C000400,-0724,0830,12045,028.9,045.5,0.253,755.5,01.16,0.508
2016-06-04 02:36:00,2086E-3,5C000400,-0724,0830,12282,028.9,045.5,0.254,755.5,01.16,0.508
2016-06-04 02:37:00,2106E-3,5C000400,-0724,0829,12114,028.9,045.5,0.253,755.5,01.16,0.508
2016-06-04 02:38:00,2195E-3,5C000400,-0724,0829,12225,028.9,045.5,0.253,755.5,01.16,0.508
2016-06-04 02:39:00,2185E-3,5C000400,-0724,0830,12000,028.9,045.5,0.253,755.5,01.16,0.508
2016-06-04 02:40:00,2155E-3,5C000400,-0724,0830,12122,028.9,045.5,0.253,755.5,01.16,0.508
2016-06-04 02:41:00,2197E-3,5C000400,-0724,0830,12246,028.9,045.5,0.253,755.4,01.16,0.508
2016-06-04 02:42:00,2179E-3,5C000400,-0724,0829,12370,028.9,045.5,0.254,755.4,01.16,0.508
2016-06-04 02:43:00,2130E-3,5C000400,-0724,0831,12333,028.9,045.5,0.254,755.5,01.16,0.508
2016-06-04 02:44:00,2170E-3,5C000400,-0724,0829,12126,028.9,045.5,0.254,755.6,01.16,0.508
2016-06-04 02:45:00,1978E-3,5C000400,-0724,0829,12150,028.9,045.5,0.254,755.6,01.16,0.508
2016-06-04 02:46:00,2121E-3,5C000400,-0724,0830,12169,028.9,045.5,0.254,755.6,01.16,0.508
2016-06-04 02:47:00,2166E-3,5C000400,-0724,0830,12258,028.9,045.5,0.253,755.6,01.16,0.508
2016-06-04 02:48:00,2102E-3,5C000400,-0724,0830,12294,028.9,045.5,0.253,755.5,01.16,0.508
2016-06-04 02:49:00,2002E-3,5C000400,-0724,0830,12174,028.9,045.5,0.253,755.5,01.16,0.508
2016-06-04 02:50:00,2217E-3,5C000400,-0724,0830,12139,028.9,045.5,0.253,755.5,01.16,0.508
2016-06-04 02:51:00,2022E-3,5C000400,-0724,0830,12127,028.9,045.5,0.253,755.4,01.16,0.508
2016-06-04 02:52:00,2126E-3,5C000400,-0724,0830,12281,028.9,045.5,0.253,755.4,01.16,0.508
2016-06-04 02:53:00,2102E-3,5C000400,-0724,0830,12207,028.9,045.5,0.253,755.3,01.16,0.508
2016-06-04 02:54:00,2289E-3,5C000400,-0724,0830,12162,028.9,045.5,0.253,755.4,01.16,0.508
2016-06-04 02:55:00,2274E-3,5C000400,-0724,0829,12220,028.9,045.5,0.253,755.4,01.16,0.508
2016-06-04 02:56:00,2089E-3,5C000400,-0724,0829,12151,028.9,045.5,0.253,755.4,01.16,0.508
2016-06-04 02:57:00,2258E-3,5C000400,-0724,0829,12191,028.9,045.5,0.253,755.5,01.16,0.508
2016-06-04 02:58:00,2099E-3,5C000400,-0724,0830,12233,028.9,045.5,0.253,755.5,01.16,0.508
2016-06-04 02:59:00,2175E-3,5C000400,-0724,0829,12137,028.9,045.5,0.253,755.4,01.16,0.508
2016-06-04 03:00:00,2219E-3,5C000400,-0724,0829,12175,028.9,045.5,0.253,755.4,01.16,0.508
2016-06-04 03:01:00,2163E-3,5C000400,-0724,0829,12157,028.9,045.5,0.253,755.3,01.16,0.508
2016-06-04 03:02:00,2055E-3,5C000400,-0724,0830,12215,028.9,045.5,0.253,755.3,01.16,0.508
2016-06-04 03:03:00,2326E-3,5C000400,-0724,0829,12150,028.9,045.5,0.253,755.3,01.16,0.508
2016-06-04 03:04:00,2128E-3,5C000400,-0724,0830,12303,028.9,045.5,0.253,755.4,01.16,0.508
2016-06-04 03:05:00,2281E-3,5C000400,-0724,0830,12041,028.9,045.5,0.253,755.4,01.16,0.508
2016-06-04 03:06:00,2116E-3,5C000400,-0724,0830,12271,028.9,045.5,0.253,755.4,01.16,0.508
2016-06-04 03:07:00,2127E-3,5C000400,-0724,0829,12193,028.9,045.4,0.253,755.5,01.16,0.508
2016-06-04 03:08:00,2152E-3,5C000400,-0724,0830,12149,028.9,045.5,0.253,755.5,01.16,0.508
2016-06-04 03:09:00,2215E-3,5C000400,-0724,0830,12185,028.9,045.5,0.253,755.5,01.16,0.508
2016-06-04 03:10:00,2237E-3,5C000400,-0724,0829,12162,028.9,045.5,0.253,755.5,01.16,0.508
2016-06-04 03:11:00,2182E-3,5C000400,-0724,0830,12108,028.9,045.5,0.253,755.6,01.16,0.508
2016-06-04 03:12:00,2171E-3,5C000400,-0724,0830,12146,028.9,045.5,0.253,755.6,01.16,0.508
2016-06-04 03:13:00,2185E-3,5C000400,-0724,0830,12259,028.9,045.5,0.253,755.6,01.16,0.508
2016-06-04 03:14:00,2226E-3,5C000400,-0724,0830,12054,028.9,045.5,0.253,755.6,01.16,0.508
2016-06-04 03:15:00,2058E-3,5C000400,-0724,0830,12131,028.9,045.5,0.254,755.5,01.16,0.508
2016-06-04 03:16:00,2159E-3,5C000400,-0724,0830,12183,028.9,045.5,0.253,755.5,01.16,0.508
2016-06-04 03:17:00,2106E-3,5C000400,-0724,0830,12240,028.9,045.5,0.253,755.6,01.16,0.508
2016-06-04 03:18:00,2224E-3,5C000400,-0724,0830,12346,028.9,045.5,0.254,755.6,01.16,0.508
2016-06-04 03:19:00,2231E-3,5C000400,-0724,0830,12214,028.9,045.5,0.254,755.5,01.16,0.508
2016-06-04 03:20:00,2398E-3,5C000400,-0724,0830,12217,028.9,045.5,0.254,755.5,01.16,0.508
2016-06-04 03:21:00,2024E-3,5C000400,-0724,0829,12228,028.9,045.5,0.254,755.5,01.16,0.508
2016-06-04 03:22:00,2233E-3,5C000400,-0724,0829,12183,028.9,045.5,0.254,755.5,01.16,0.508
2016-06-04 03:23:00,2052E-3,5C000400,-0724,0830,12102,028.9,045.5,0.254,755.5,01.16,0.508
2016-06-04 03:24:00,2116E-3,5C000400,-0724,0830,12080,028.9,045.5,0.253,755.5,01.16,0.508
2016-06-04 03:25:00,2160E-3,5C000400,-0724,0829,12231,028.9,045.5,0.253,755.6,01.16,0.508
2016-06-04 03:26:00,2160E-3,5C000400,-0724,0830,12153,028.9,045.5,0.253,755.6,01.16,0.508
2016-06-04 03:27:00,2182E-3,5C000400,-0724,0829,12275,028.9,045.5,0.253,755.6,01.16,0.508
2016-06-04 03:28:00,2024E-3,5C000400,-0724,0830,12206,028.9,045.5,0.253,755.6,01.16,0.508
2016-06-04 03:29:00,2136E-3,5C000400,-0724,0830,12161,028.9,045.5,0.253,755.6,01.16,0.508
2016-06-04 03:30:00,2168E-3,5C000400,-0724,0830,12175,028.9,045.4,0.253,755.6,01.16,0.508
2016-06-04 03:31:00,2153E-3,5C000400,-0724,0829,12155,028.9,045.5,0.253,755.6,01.16,0.508
2016-06-04 03:32:00,2102E-3,5C000400,-0724,0829,12218,028.9,045.5,0.253,755.5,01.16,0.508
2016-06-04 03:33:00,2195E-3,5C000400,-0724,0830,12229,028.9,045.5,0.253,755.5,01.16,0.508
2016-06-04 03:34:00,2123E-3,5C000400,-0724,0830,12268,028.9,045.5,0.254,755.5,01.16,0.508
2016-06-04 03:35:00,2297E-3,5C000400,-0724,0830,12183,028.9,045.5,0.254,755.5,01.16,0.508
2016-06-04 03:36:00,2051E-3,5C000400,-0724,0830,12206,028.9,045.5,0.254,755.5,01.16,0.508
2016-06-04 03:37:00,2121E-3,5C000400,-0724,0830,12183,028.9,045.5,0.254,755.4,01.16,0.508
2016-06-04 03:38:00,2096E-3,5C000400,-0724,0829,11893,028.9,045.5,0.254,755.5,01.16,0.508
2016-06-04 03:39:00,2190E-3,5C000400,-0724,0829,12120,028.9,045.5,0.253,755.6,01.16,0.508
2016-06-04 03:40:00,2101E-3,5C000400,-0724,0830,12265,028.9,045.5,0.254,755.6,01.16,0.508
2016-06-04 03:41:00,2208E-3,5C000400,-0724,0830,12291,028.9,045.5,0.253,755.6,01.16,0.508
2016-06-04 03:42:00,2226E-3,5C000400,-0724,0829,12289,028.9,045.5,0.253,755.6,01.16,0.508
2016-06-04 03:43:00,2078E-3,5C000400,-0724,0829,12104,028.9,045.5,0.253,755.7,01.16,0.508
2016-06-04 03:44:00,2240E-3,5C000400,-0724,0829,12019,028.9,045.5,0.253,755.8,01.16,0.508
2016-06-04 03:45:00,2088E-3,5C000400,-0724,0829,12244,028.9,045.5,0.253,755.8,01.16,0.508
2016-06-04 03:46:00,2013E-3,5C000400,-0724,0829,12250,028.9,045.5,0.253,755.7,01.16,0.508
2016-06-04 03:47:00,2185E-3,5C000400,-0724,0829,12168,028.9,045.5,0.253,755.7,01.16,0.508
2016-06-04 03:48:00,2191E-3,5C000400,-0724,0829,12201,028.9,045.5,0.253,755.7,01.16,0.508
2016-06-04 03:49:00,2308E-3,5C000400,-0724,0830,12308,028.9,045.5,0.253,755.7,01.16,0.508
2016-06-04 03:50:00,2160E-3,5C000400,-0724,0829,12060,028.9,045.5,0.253,755.6,01.16,0.508
2016-06-04 03:51:00,2057E-3,5C000400,-0724,0830,12193,028.9,045.5,0.253,755.5,01.16,0.508
2016-06-04 03:52:00,2192E-3,5C000400,-0724,0829,12287,028.9,045.5,0.253,755.5,01.16,0.508
2016-06-04 03:53:00,2143E-3,5C000400,-0724,0830,12099,028.9,045.5,0.253,755.6,01.16,0.508
2016-06-04 03:54:00,2105E-3,5C000400,-0724,0829,12052,028.9,045.5,0.253,755.6,01.16,0.508
2016-06-04 03:55:00,2088E-3,5C000400,-0724,0829,12237,028.9,045.5,0.253,755.5,01.16,0.508
2016-06-04 03:56:00,2091E-3,5C000400,-0724,0829,12153,028.9,045.5,0.253,755.4,01.16,0.508
2016-06-04 03:57:00,2123E-3,5C000400,-0724,0830,12254,028.9,045.5,0.253,755.4,01.16,0.508
2016-06-04 03:58:00,2236E-3,5C000400,-0724,0829,12142,028.9,045.5,0.253,755.4,01.16,0.508
2016-06-04 03:59:00,2017E-3,5C000400,-0724,0830,12170,028.9,045.5,0.254,755.4,01.16,0.508
2016-06-04 04:00:00,2050E-3,5C000400,-0724,0830,12193,028.9,045.5,0.254,755.3,01.16,0.508
2016-06-04 04:01:00,2192E-3,5C000400,-0724,0830,12334,028.9,045.5,0.254,755.4,01.16,0.508
2016-06-04 04:02:00,2185E-3,5C000400,-0724,0830,12241,028.9,045.5,0.254,755.4,01.16,0.508
2016-06-04 04:03:00,2214E-3,5C000400,-0724,0829,12192,028.9,045.5,0.254,755.5,01.16,0.508
2016-06-04 04:04:00,2128E-3,5C000400,-0724,0829,11993,028.9,045.5,0.254,755.5,01.16,0.508
2016-06-04 04:05:00,2151E-3,5C000400,-0724,0830,12169,028.9,045.5,0.254,755.5,01.16,0.508
2016-06-04 04:06:00,2240E-3,5C000400,-0724,0830,12112,028.9,045.5,0.253,755.5,01.16,0.508
2016-06-04 04:07:00,2301E-3,5C000400,-0724,0830,12280,028.9,045.5,0.253,755.4,01.16,0.508
2016-06-04 04:08:00,2135E-3,5C000400,-0724,0830,12199,028.9,045.5,0.253,755.4,01.16,0.508
2016-06-04 04:09:00,2161E-3,5C000400,-0724,0830,12094,028.9,045.5,0.253,755.4,01.16,0.508
2016-06-04 04:10:00,2113E-3,5C000400,-0724,0829,12154,028.9,045.5,0.253,755.4,01.16,0.508
2016-06-04 04:11:00,2051E-3,5C000400,-0724,0829,12282,028.9,045.5,0.253,755.4,01.16,0.508
2016-06-04 04:12:00,2289E-3,5C000400,-0724,0829,12313,028.9,045.5,0.253,755.4,01.16,0.508
2016-06-04 04:13:00,2189E-3,5C000400,-0724,0830,12176,028.9,045.5,0.253,755.4,01.16,0.508
2016-06-04 04:14:00,2191E-3,5C000400,-0724,0830,12069,028.9,045.5,0.253,755.4,01.16,0.508
2016-06-04 04:15:00,2033E-3,5C000400,-0724,0829,12148,028.9,045.5,0.253,755.4,01.16,0.508
2016-06-04 04:16:00,2254E-3,5C000400,-0724,0830,12281,028.9,045.5,0.253,755.4,01.16,0.508
2016-06-04 04:17:00,2262E-3,5C000400,-0724,0830,12232,028.9,045.5,0.253,755.5,01.16,0.508
2016-06-04 04:18:00,2032E-3,5C000400,-0724,0829,12242,028.9,045.5,0.253,755.5,01.16,0.508
2016-06-04 04:19:00,2033E-3,5C000400,-0724,0829,12213,028.8,045.5,0.253,755.6,01.16,0.508
2016-06-04 04:20:00,2193E-3,5C000400,-0724,0828,12107,028.8,045.5,0.253,755.6,01.16,0.508